EHI
0 0 0 0 0 0 0 0 0 1 3 7 11 14 16 18 21 23 24 23 21 20 17 13 12 12 13 14 13 13 12 12 10 10 12 12 11 9 6 4 3 3 4 5
0 0 0 0 0 0 0 0 0 1 4 9 13 14 14 16 18 20 20 19 17 16 15 13 11 11 12 11 11 12 12 11 9 9 11 10 9 7 5 4 4 4 4 4
0 0 0 0 0 0 0 0 0 1 4 8 11 11 10 12 16 18 17 16 14 13 12 12 10 9 9 8 8 9 9 9 9 10 10 9 8 6 5 5 5 5 4 3
0 0 0 0 0 0 0 0 0 1 2 3 4 5 6 10 15 16 16 15 13 12 11 9 8 7 6 5 6 6 6 7 8 10 9 9 8 6 5 5 5 4 3 2
0 0 0 0 0 0 0 0 0 0 0 0 0 1 3 8 12 14 13 13 13 12 10 7 5 4 3 4 5 5 5 5 6 7 7 6 5 4 3 3 2 1 1 1
0 0 0 0 0 0 0 0 0 0 0 0 0 0 1 3 6 9 10 10 11 10 7 5 3 2 2 3 4 5 4 3 3 3 4 4 3 3 2 1 0 0 0 0
0 0 0 0 0 0 0 0 0 0 0 0 0 0 0 0 3 5 6 7 8 8 6 3 1 1 2 3 3 3 3 2 1 1 2 2 2 2 1 0 0 0 0 0
0 0 0 0 0 0 0 0 0 0 0 0 0 0 1 1 3 5 5 5 5 5 4 1 0 0 1 2 2 1 1 1 0 0 1 1 1 1 0 0 0 0 0 0
0 0 0 0 0 0 0 0 0 0 0 0 0 0 1 3 5 6 6 5 3 2 1 0 0 0 1 1 1 0 0 0 0 0 0 0 0 0 0 0 0 0 0 0
0 0 0 0 0 0 0 0 0 0 0 0 0 0 1 3 6 6 5 4 3 1 0 0 0 0 0 0 0 0 0 0 0 0 0 0 0 0 0 0 0 0 0 0
0 0 0 0 0 0 0 0 0 0 0 0 0 0 1 3 5 5 4 3 2 1 0 0 0 0 0 0 0 0 0 0 0 0 0 0 0 0 0 0 0 0 0 0
0 0 0 0 0 0 0 0 0 0 0 0 0 0 0 1 3 4 2 1 1 0 0 0 0 0 0 0 0 0 0 0 0 0 0 0 0 0 0 0 0 0 0 0
0 0 0 0 0 0 0 0 0 0 0 0 0 0 0 1 2 2 1 0 0 0 0 0 0 0 0 0 0 0 0 0 0 0 0 0 0 0 0 0 0 0 0 0
0 0 0 0 0 0 0 0 0 0 0 0 0 0 0 0 1 1 0 0 0 0 0 0 0 0 0 0 0 0 0 0 0 0 0 0 0 0 0 0 0 0 0 0
0 0 0 0 0 0 0 0 0 0 0 0 0 0 0 0 0 0 0 0 0 0 0 0 0 0 0 0 0 0 0 0 0 0 0 0 0 0 0 0 0 0 0 0
0 0 0 0 0 0 0 0 0 0 0 0 0 0 0 0 0 0 0 0 0 0 0 0 0 0 0 0 0 0 0 0 0 0 0 0 0 0 0 0 0 0 0 0
0 0 0 0 0 0 0 0 0 0 0 0 0 0 0 0 0 0 0 0 0 0 0 0 0 0 0 0 0 0 0 0 0 0 0 0 0 0 0 0 0 0 0 0
0 0 0 0 0 0 0 0 0 0 0 0 0 0 0 0 0 0 0 0 0 0 0 0 0 0 0 0 0 0 0 0 0 0 0 0 0 0 0 0 0 0 0 0
0 0 0 0 0 0 0 0 0 0 0 0 0 0 0 0 0 0 0 0 0 0 0 0 0 0 0 0 0 0 0 0 0 0 0 0 0 0 0 0 0 0 0 0
0 0 0 0 0 0 0 0 0 0 0 0 0 0 0 0 0 0 0 0 0 0 0 0 0 0 0 0 0 0 0 0 0 0 0 0 0 0 0 0 0 0 0 0
0 0 0 0 0 0 0 0 0 0 0 0 0 0 0 0 0 0 0 0 0 0 0 0 0 0 0 0 0 0 0 0 0 0 0 0 0 0 0 0 0 0 0 0
0 0 0 0 0 0 0 0 0 0 0 0 0 0 0 0 0 0 0 0 0 0 0 0 0 0 0 0 0 0 0 0 0 0 0 0 0 0 0 0 0 0 0 0
0 0 0 0 0 0 0 0 0 0 0 0 0 0 0 0 0 0 0 0 0 0 0 0 0 0 0 0 0 0 0 0 0 0 0 0 0 0 0 0 0 0 0 0
0 0 0 0 0 0 0 0 0 0 0 0 0 0 0 0 0 0 0 0 0 0 0 0 0 0 0 0 0 0 0 0 0 0 0 0 0 0 0 0 0 0 0 0
0 0 0 0 0 0 0 0 0 0 0 0 0 0 0 0 0 0 0 0 0 0 0 0 0 0 0 0 0 0 0 0 0 0 0 0 0 0 0 0 0 0 0 0
0 0 0 0 0 0 0 0 0 0 0 0 0 0 0 0 0 0 0 0 0 0 0 0 0 0 0 0 0 0 0 0 0 0 0 0 0 0 0 0 0 0 0 0
Wind_Speed
2 2 4 7 6 7 5 4 5 6 4 5 8 10 10 8 9 10 10 9 8 9 8 7 7 6 7 7 7 7 6 5 3 2 2 2 2 2 3 3 4 4 4 3
3 5 11 7 6 6 6 5 5 4 2 6 9 8 6 7 9 10 11 10 10 9 8 7 7 6 7 6 7 7 6 5 4 3 1 1 2 2 2 3 4 5 4 4
7 9 7 7 7 6 6 5 5 3 3 6 9 5 3 3 5 7 8 9 9 10 9 8 7 7 7 7 7 6 7 6 5 4 3 3 3 3 3 3 3 4 5 4
7 9 6 5 6 5 5 6 4 3 5 1 4 3 2 5 6 7 8 8 8 9 9 8 7 7 7 7 6 7 7 7 6 5 4 4 3 2 2 2 2 4 5 5
6 5 4 5 7 5 6 4 2 4 5 3 3 5 2 3 5 7 8 9 8 9 10 9 8 8 7 7 6 6 7 7 7 6 5 5 4 3 2 3 4 4 5 6
7 5 4 6 6 4 1 5 6 6 6 3 1 4 2 3 6 8 9 9 11 11 11 10 9 8 7 7 6 6 7 7 7 7 6 6 5 5 5 4 4 3 3 4
6 6 4 2 1 3 5 7 5 5 5 2 1 4 2 3 4 9 11 11 11 11 10 10 9 8 7 7 6 6 6 6 6 7 7 6 6 5 5 4 4 3 3 3
1 5 3 1 2 2 1 8 7 4 3 3 2 2 1 1 6 10 11 12 12 11 10 9 8 7 7 6 5 5 5 5 5 6 6 6 5 4 4 4 3 3 3 3
3 4 4 2 0 4 2 2 6 7 3 2 1 0 1 5 8 11 12 12 11 10 10 10 8 7 6 6 5 4 5 5 5 5 5 5 5 5 4 4 4 3 3 3
3 1 4 2 4 4 5 5 6 5 4 1 1 2 4 8 10 11 11 11 11 11 10 9 7 6 5 5 4 5 5 4 4 5 5 4 5 5 4 4 5 5 4 4
3 2 4 3 2 1 1 3 5 4 4 5 2 5 4 10 12 12 11 11 11 11 10 8 7 6 5 5 4 4 4 4 4 5 5 5 5 5 5 5 5 5 5 5
1 4 1 3 3 2 2 3 5 4 2 3 4 4 2 7 10 11 11 11 12 11 10 9 7 6 5 5 4 4 4 4 3 4 4 5 4 5 5 5 5 5 6 6
3 5 3 6 7 6 3 1 2 5 4 3 3 3 3 8 10 11 13 12 11 10 10 9 7 6 5 4 4 4 3 3 3 4 4 5 5 5 5 5 6 6 7 7
4 4 5 4 4 3 3 4 2 4 3 2 3 5 4 9 12 11 11 11 10 9 9 9 7 6 5 4 4 4 3 3 4 4 5 5 4 5 5 5 6 6 7 7
6 3 1 1 2 1 5 6 6 4 3 5 4 6 8 11 12 12 12 12 12 11 10 9 8 6 5 4 4 3 3 3 4 4 4 4 4 5 6 6 6 6 7 8
4 3 3 4 5 5 9 9 7 6 4 5 6 2 5 8 8 10 11 12 12 12 11 10 9 8 6 5 4 3 3 3 4 4 3 3 4 5 5 5 6 6 6 7
2 3 3 2 4 5 6 6 5 5 3 3 3 4 10 10 11 12 11 11 12 12 11 10 9 8 6 5 4 4 3 3 4 4 4 4 4 5 5 6 6 6 5 6
3 3 3 1 4 4 1 1 4 6 5 4 5 7 9 9 7 6 8 10 11 12 11 9 8 7 5 4 4 3 4 4 5 4 4 4 4 5 5 5 5 4 4 5
4 4 3 3 2 1 1 2 0 3 2 2 7 9 9 10 8 4 4 8 9 9 9 8 7 6 5 5 4 5 4 5 4 4 4 4 4 4 4 4 4 3 3 4
4 5 4 3 3 0 3 5 0 6 2 1 8 11 11 8 5 4 6 8 10 9 8 8 7 6 6 5 5 6 5 4 4 3 3 4 4 4 4 3 3 2 3 3
3 4 3 2 2 1 4 5 1 2 3 4 7 9 9 4 4 8 10 9 9 9 9 8 8 6 5 5 6 6 4 4 3 4 4 4 3 3 3 2 2 3 3 3
3 3 2 2 2 2 4 3 2 3 2 5 6 7 7 7 10 11 11 10 10 9 9 8 7 5 4 5 6 5 4 3 4 4 4 3 2 2 3 3 2 2 3 3
3 3 3 3 3 3 1 2 2 4 5 4 5 7 11 11 11 11 10 10 9 9 8 6 7 6 4 4 6 6 4 4 4 4 3 2 2 2 3 3 2 1 1 1
3 2 4 4 2 2 4 4 3 5 6 6 8 10 10 11 11 11 10 9 9 7 7 6 7 6 4 4 5 5 4 4 5 4 3 2 3 3 3 2 2 2 2 2
2 2 4 4 2 4 4 3 5 6 8 9 8 8 10 12 11 10 9 9 8 7 6 6 7 6 5 5 5 5 5 5 4 3 2 2 3 3 3 2 2 2 1 2
2 2 4 2 3 4 1 2 6 8 8 9 9 8 8 9 10 9 8 7 7 7 6 7 6 6 5 5 5 5 5 6 5 3 2 2 2 2 2 2 2 3 1 1
Wind_Direction
235 86 243 238 217 212 238 248 258 251 211 122 129 136 156 154 140 137 135 132 131 121 113 100 89 81 74 63 61 49 43 32 34 46 66 81 78 67 54 48 42 37 29 30
15 256 240 241 258 249 249 257 268 287 145 117 123 124 146 158 159 152 145 140 139 132 116 105 96 81 70 62 59 53 41 30 27 32 42 80 89 76 66 43 36 31 30 26
208 242 238 232 250 255 260 231 236 209 77 90 108 89 133 130 125 131 129 129 131 131 121 111 96 82 71 59 52 50 38 31 25 30 52 70 63 56 46 38 28 23 32 33
239 250 249 241 247 234 261 247 207 170 112 141 115 140 201 154 142 145 138 134 135 127 116 105 92 81 70 62 55 49 41 35 28 35 59 75 86 83 60 56 40 27 30 29
259 245 225 240 243 222 229 237 158 132 121 89 45 117 229 144 162 166 153 144 134 125 118 106 97 89 75 63 55 49 46 40 34 41 52 69 71 72 70 67 54 37 28 28
257 264 219 222 241 225 180 52 44 52 72 71 273 127 209 226 201 165 153 141 128 121 113 104 94 84 74 63 54 49 49 43 37 43 49 64 72 72 73 63 53 38 26 22
316 303 290 253 351 356 73 79 38 13 23 270 303 103 218 266 180 154 147 136 123 119 114 109 100 89 80 69 60 56 56 49 42 47 48 53 60 64 67 64 57 49 35 24
292 299 287 343 150 183 144 128 147 174 202 271 12 101 270 82 112 121 125 123 121 119 116 109 104 99 92 83 74 67 63 56 47 51 50 48 52 58 58 55 54 47 39 24
190 264 292 315 107 137 115 116 154 130 126 89 346 38 81 107 111 122 127 127 127 123 115 111 109 103 98 89 80 76 71 60 52 56 59 53 49 55 55 49 46 41 31 32
154 264 300 314 48 40 136 143 88 100 133 169 245 226 206 171 153 142 140 140 133 124 118 114 110 109 102 94 82 74 73 66 54 53 55 60 49 47 48 50 45 41 30 30
113 110 323 17 81 216 37 79 101 110 147 153 195 259 227 179 162 156 152 143 134 128 124 121 117 113 105 93 86 83 76 67 57 55 57 56 48 45 46 48 45 44 39 37
67 107 331 283 276 193 149 164 139 139 208 156 155 257 336 141 143 142 139 136 134 133 132 128 124 118 109 100 95 89 82 74 65 62 63 59 51 47 46 44 43 49 50 49
67 89 57 350 347 360 22 34 120 128 120 138 151 236 66 118 129 137 138 139 138 135 130 124 121 119 115 108 104 96 85 86 77 69 64 56 48 49 49 47 47 52 54 53
85 86 136 177 229 283 333 357 46 97 122 147 178 171 152 142 142 142 142 144 139 134 130 129 126 124 119 113 110 105 93 95 92 78 68 59 50 51 54 54 53 53 57 58
76 78 40 245 257 23 27 22 39 63 141 144 165 167 180 167 155 151 149 146 142 141 140 139 137 130 124 118 113 110 105 99 100 93 76 63 59 60 60 58 57 58 60 62
57 71 33 14 18 54 49 32 45 50 71 109 112 115 150 137 132 144 153 154 152 150 147 145 141 137 134 132 127 123 118 112 109 103 93 77 70 67 66 65 64 64 60 58
42 71 61 350 333 55 32 2 39 57 45 114 136 161 143 144 157 162 163 160 157 153 150 149 147 145 143 143 140 140 136 120 111 105 100 90 83 78 72 77 69 65 61 62
133 93 102 46 35 66 224 331 66 77 48 67 105 137 149 146 143 146 154 153 150 148 148 146 144 142 142 143 139 130 120 115 113 108 103 96 91 86 79 74 70 66 63 63
142 123 92 85 72 95 341 332 14 112 42 80 117 121 116 114 100 94 135 138 141 142 142 142 142 141 140 140 135 119 111 113 115 115 115 110 106 97 88 82 72 66 69 61
62 85 97 88 89 58 293 309 304 110 84 145 132 135 139 134 140 176 149 129 127 128 131 132 131 127 131 136 128 118 117 116 122 130 126 115 113 107 100 94 79 70 81 76
45 46 72 95 112 230 290 306 34 104 217 174 147 148 152 161 165 145 134 126 129 130 132 133 133 134 141 138 126 124 130 139 148 133 116 113 118 122 115 91 77 88 85 73
103 91 72 85 88 265 301 8 97 186 141 131 135 141 131 119 118 124 130 131 132 132 135 136 134 137 140 138 131 130 145 155 135 121 115 116 125 133 110 99 83 80 90 89
67 159 153 145 189 240 7 96 132 133 120 127 134 133 129 126 131 132 134 136 137 138 139 136 138 137 137 139 137 140 157 145 125 117 119 120 108 96 100 108 104 79 84 110
358 58 90 79 61 57 62 79 80 104 117 126 134 134 133 132 137 137 139 139 139 138 139 138 138 139 144 146 145 153 152 136 125 125 130 124 107 89 73 76 99 111 113 119
328 47 77 84 99 59 35 68 99 100 109 115 124 130 136 137 140 143 144 145 145 141 141 143 147 151 156 150 149 156 145 134 130 136 137 118 113 115 96 75 70 111 170 191
335 122 130 183 208 146 168 130 119 118 124 129 127 123 130 138 141 140 145 146 145 146 145 146 150 153 157 154 157 162 152 144 141 143 150 144 139 136 130 116 49 21 62 72